Weather in Sredniy

Russia / Irkutsk Oblast     52°52′51″N   103°29′20″E
В апреле 2022 года жителям России запретили посещать сайт meteo.paraplan.net по решению Генеральной прокуратуры. Аудитория сайта уменьшилась в 10 раз. Владельцы сайта не видят смысла в поддержке погодного сервера в таких условиях. Сайт будет закрыт в октябре.
temp.,
°C
wind,
m/s
gust,
m/s
humid.,
%
clouds,
%
prec.,
mm/h
press.,
hPa
HPBL,
m
4 october, tue
tue423:00−1se1164100 0.0 103710
02:00−1se1164100 0.0 103610
05:00−1sse1162100 0.0 103616
08:00−1wnw1161100 0.0 103673
11:00+2nw2255100 0.0 1036871
14:00+4nnw3451100 0.0 10341474
17:00+3n345443 0.0 10331076
20:00−1nne22735 0.0 103510
5 october, wed
wed523:00−2ne00766 0.0 103510
02:00−2s11805 0.0 103410
05:00−3se11835 0.0 103310
08:00−3sse118118 0.0 103340
11:00+2sse22565 0.0 1031547
14:00+6ssw11465 0.0 1028867
17:00+6nne11445 0.0 1026843
20:00+1e226196 0.0 102610
6 october, thu
thu623:000ese116930 0.0 102510
02:00−1ese1170100 0.0 102411
05:000ne1167100 0.0 102319
08:00+1n1164100 0.0 102462
11:00+5nw5760100 0.1 10241007
14:00+5nw466099 0.1 10241204
17:00+5nnw4544100 0.0 10241359
20:00+3nnw2556100 0.0 1026130
7 october, fri
fri723:00+2nnw3769100 0.0 1027266
02:00+1nw2776100 0.0 1028272
05:000nw4887100 0.0 1029406
08:00−1nw4986100 0.0 1031528
11:00+2nw6863100 0.1 10311313
14:00+3nw6758100 0.6 10311371
17:00+3nnw675210 0.3 10311474
20:00−1nw387557 0.3 1035172
8 october, sat
sat823:00−2wnw36885 0.0 1036126
02:00−3wnw24925 0.0 103795
05:00−3w11925 0.0 103810
08:00−3ssw11895 0.0 103824
11:00+2sse34595 0.0 1036585
14:00+5sse444097 0.0 10321002
17:00+5se3543100 0.0 1030267
20:00+1ese3558100 0.0 103165